Photometre #642[NE_1.2] Dushanbe AOT

File : 20220826_642.hum

26/08/2022,01:35:03,TEMP=17.7,BA=5.28,STAT.A=0.0,ExtBa=13.56
26/08/2022,01:38:22,TEMP=18.0,BA=5.28,STAT.A=0.0,ExtBa=13.56
26/08/2022,01:42:11,TEMP=18.3,BA=5.16,STAT.A=0.0,ExtBa=13.56
26/08/2022,01:46:45,TEMP=18.4,BA=5.16,STAT.A=0.0,ExtBa=13.56
26/08/2022,01:52:09,TEMP=18.5,BA=5.32,STAT.A=0.0,ExtBa=13.56
26/08/2022,01:58:50,TEMP=18.5,BA=5.32,STAT.A=0.0,ExtBa=13.56
26/08/2022,02:07:15,TEMP=18.7,BA=5.16,STAT.B=0.0,ExtBa=13.56
26/08/2022,02:17:02,TEMP=19.2,BA=5.20,STAT.A=0.0,ExtBa=13.56
26/08/2022,02:18:54,TEMP=19.5,BA=5.20,STAT.A=0.0,ExtBa=13.56
26/08/2022,02:20:46,TEMP=19.7,BA=5.24,STAT.A=0.0,ExtBa=13.56
26/08/2022,02:26:20,TEMP=19.4,BA=5.24,STAT.A=0.0,ExtBa=13.56
26/08/2022,02:32:48,TEMP=19.7,BA=5.44,STAT.C=0.0,ExtBa=13.56
26/08/2022,02:47:45,TEMP=21.2,BA=5.32,STAT.A=0.0,ExtBa=13.57
26/08/2022,02:49:38,TEMP=21.6,BA=5.32,STAT.A=0.0,ExtBa=13.57
26/08/2022,02:59:14,TEMP=21.8,BA=5.32,STAT.A=0.5,ExtBa=13.60
26/08/2022,03:11:39,TEMP=22.5,BA=5.52,STAT.A=0.5,ExtBa=13.75
26/08/2022,03:27:01,TEMP=23.5,BA=5.56,STAT.B=0.5,ExtBa=13.91
26/08/2022,03:58:47,TEMP=25.7,BA=5.56,STAT.B=0.5,ExtBa=14.18
26/08/2022,04:12:05,TEMP=26.9,BA=5.52,STAT.D=0.5,ExtBa=14.02
26/08/2022,04:27:07,TEMP=28.0,BA=5.60,STAT.F,ExtBa=14.26
26/08/2022,04:42:06,TEMP=29.3,BA=5.36,STAT.D=1.0,ExtBa=13.94
26/08/2022,04:57:06,TEMP=29.6,BA=5.56,STAT.D=1.0,ExtBa=14.37
26/08/2022,05:12:06,TEMP=30.0,BA=5.56,STAT.D=1.0,ExtBa=14.42
26/08/2022,05:27:08,TEMP=30.4,BA=5.56,STAT.F,ExtBa=14.41
26/08/2022,05:42:08,TEMP=30.6,BA=5.56,STAT.D=1.0,ExtBa=14.44
26/08/2022,05:57:06,TEMP=31.3,BA=5.56,STAT.D=1.0,ExtBa=14.41
26/08/2022,06:12:06,TEMP=31.7,BA=5.56,STAT.D=1.0,ExtBa=14.46
26/08/2022,06:27:08,TEMP=32.1,BA=5.52,STAT.F,ExtBa=14.44
26/08/2022,06:42:06,TEMP=32.4,BA=5.52,STAT.D=1.0,ExtBa=14.50
26/08/2022,06:57:06,TEMP=32.6,BA=5.52,STAT.D=1.0,ExtBa=14.50
26/08/2022,07:12:06,TEMP=32.4,BA=5.52,STAT.D=1.0,ExtBa=14.52
26/08/2022,07:27:08,TEMP=32.8,BA=5.52,STAT.F,ExtBa=14.50
26/08/2022,07:42:06,TEMP=33.0,BA=5.48,STAT.D=1.0,ExtBa=14.50
26/08/2022,07:57:06,TEMP=33.4,BA=5.48,STAT.D=1.0,ExtBa=14.51
26/08/2022,08:12:06,TEMP=34.0,BA=5.48,STAT.D=1.0,ExtBa=14.47
26/08/2022,08:27:08,TEMP=34.1,BA=5.48,STAT.F,ExtBa=14.49
26/08/2022,08:42:06,TEMP=34.2,BA=5.48,STAT.D=1.0,ExtBa=14.43
26/08/2022,08:57:06,TEMP=35.2,BA=5.48,STAT.D=1.5,ExtBa=14.42
26/08/2022,09:12:06,TEMP=35.0,BA=5.44,STAT.D=1.5,ExtBa=14.43
26/08/2022,09:27:08,TEMP=35.2,BA=5.44,STAT.F,ExtBa=14.37
26/08/2022,09:42:06,TEMP=34.7,BA=5.44,STAT.D=1.5,ExtBa=14.36
26/08/2022,09:57:06,TEMP=34.8,BA=5.44,STAT.D=1.5,ExtBa=14.30
26/08/2022,10:12:06,TEMP=35.2,BA=5.44,STAT.D=1.5,ExtBa=14.27
26/08/2022,10:27:06,STAT.p
26/08/2022,10:42:05,TEMP=35.0,BA=5.44,STAT.D=1.5,ExtBa=14.13
26/08/2022,10:55:26,TEMP=34.8,BA=5.44,STAT.B=1.5,ExtBa=14.07
26/08/2022,11:27:11,TEMP=34.7,BA=5.44,STAT.B=1.5,ExtBa=13.92
26/08/2022,11:42:33,TEMP=33.8,BA=5.44,STAT.A=1.0,ExtBa=13.76
26/08/2022,11:54:58,TEMP=33.7,BA=5.44,STAT.A=1.0,ExtBa=13.73
26/08/2022,12:05:16,TEMP=33.7,BA=5.44,STAT.A=1.0,ExtBa=13.66
26/08/2022,12:13:59,TEMP=33.3,BA=5.44,STAT.A=1.0,ExtBa=13.57
26/08/2022,12:21:23,TEMP=33.1,BA=5.44,STAT.C=1.0,ExtBa=13.56
26/08/2022,12:36:12,TEMP=32.4,BA=5.32,STAT.A=1.0,ExtBa=13.55
26/08/2022,12:38:10,TEMP=32.4,BA=5.32,STAT.A=1.0,ExtBa=13.55
26/08/2022,12:40:08,TEMP=32.4,BA=5.32,STAT.A=1.0,ExtBa=13.55
26/08/2022,12:42:58,TEMP=32.1,BA=5.32,STAT.A=1.0,ExtBa=13.55
26/08/2022,12:46:56,TEMP=31.8,BA=5.32,STAT.B=1.0,ExtBa=13.56
26/08/2022,12:56:48,TEMP=31.3,BA=5.32,STAT.A=1.0,ExtBa=13.55
26/08/2022,13:01:59,TEMP=30.8,BA=5.36,STAT.A=1.0,ExtBa=13.56
26/08/2022,13:07:28,TEMP=30.5,BA=5.36,STAT.A=1.0,ExtBa=13.56
26/08/2022,13:11:59,TEMP=30.3,BA=5.36,STAT.A=1.0,ExtBa=13.56
26/08/2022,13:15:49,TEMP=30.1,BA=5.36,STAT.A=1.0,ExtBa=13.56
26/08/2022,13:19:06,TEMP=30.0,BA=5.36,STAT.A=1.0,ExtBa=13.56